VK3AFQ-13 Weather Reports


Display with metric or nautical units.
time (UTC)temp
F
wind
direction
speed
MPH
gust
MPH
rain 1hr
in
rain 24hr
in
rain mn
in
humidity
%
barometer
mb
20260505074603 59 129 2.0 5.0 0.00 0.00 0.00 72 1022.9
20260505073103 60 0 0.0 1.0 0.00 0.00 0.00 75 1022.9
20260505071604 60 0 0.0 0.0 0.00 0.00 0.00 74 1022.6
20260505064604 59 0 0.0 0.0 0.00 0.00 0.00 76 1022.4
20260505063104 59 0 0.0 0.0 0.00 0.00 0.00 74 1022.2
20260505061603 60 0 0.0 2.0 0.00 0.00 0.00 71 1022.3
20260505054603 60 128 0.0 6.0 0.00 0.00 0.00 72 1022.1
20260505053103 62 129 3.0 4.0 0.00 0.00 0.00 69 1021.7
20260505051603 59 0 0.0 2.0 0.00 0.00 0.00 74 1021.7
20260505041603 59 128 2.0 4.0 0.00 0.00 0.00 80 1021.6
20260505034603 58 128 2.0 3.0 0.00 0.00 0.00 80 1021.8
20260505033103 58 0 0.0 6.0 0.00 0.00 0.00 81 1021.7
20260505031604 57 128 4.0 7.0 0.00 0.00 0.00 81 1021.7
20260505024603 58 128 2.0 4.0 0.00 0.00 0.00 83 1022.2
20260505023103 57 0 0.0 4.0 0.00 0.00 0.00 85 1022.2
20260505021603 56 0 0.0 4.0 0.00 0.00 0.00 86 1022.2
20260505014604 55 128 1.0 4.0 0.00 0.00 0.00 87 1022.1
20260505013104 55 128 3.0 5.0 0.00 0.00 0.00 89 1022.3
20260505011603 54 128 1.0 7.0 0.00 0.00 0.00 90 1022.1
20260505004603 54 128 2.0 3.0 0.00 0.00 0.00 91 1022.2
20260505003103 53 129 1.0 5.0 0.00 0.00 0.00 93 1022.0
20260505001603 52 129 2.0 6.0 0.00 0.00 0.00 94 1022.0
20260504234603 51 128 3.0 6.0 0.00 0.00 0.00 95 1022.2
20260504233103 50 129 4.0 6.0 0.00 0.00 0.00 95 1022.0
20260504231603 50 128 5.0 7.0 0.00 0.00 0.00 95 1022.0
20260504224603 50 129 3.0 4.0 0.00 0.00 0.00 95 1021.8
20260504223104 49 129 1.0 3.0 0.00 0.00 0.00 95 1021.6
20260504221604 49 0 0.0 2.0 0.00 0.00 0.00 95 1021.4
20260504214603 48 129 1.0 2.0 0.00 0.00 0.00 95 1020.9
20260504213103 48 128 1.0 3.0 0.00 0.00 0.00 95 1020.5
20260504211603 48 129 1.0 1.0 0.00 0.00 0.00 95 1020.4
20260504210101 48 128 0.0 2.0 0.00 0.00 0.00 95 1020.2
20260504204603 48 0 0.0 4.0 0.00 0.00 0.00 95 1019.8
20260504203104 48 129 1.0 3.0 0.00 0.00 0.00 95 1019.8
20260504201604 48 128 1.0 3.0 0.00 0.00 0.00 95 1019.6
20260504194603 49 129 2.0 2.0 0.00 0.00 0.00 95 1019.5
20260504193103 49 129 1.0 4.0 0.00 0.00 0.00 95 1019.2
20260504191604 49 0 0.0 3.0 0.00 0.00 0.00 94 1019.3
20260504184604 50 128 2.0 4.0 0.00 0.00 0.00 94 1018.6
20260504183103 50 129 2.0 4.0 0.00 0.00 0.00 94 1018.6
20260504181604 50 129 1.0 4.0 0.00 0.00 0.00 94 1018.6
20260504174604 51 128 2.0 4.0 0.00 0.00 0.00 94 1018.4
20260504173104 51 129 3.0 5.0 0.00 0.00 0.00 93 1018.5
20260504171603 51 128 3.0 5.0 0.00 0.00 0.00 93 1018.3
20260504081603 54 129 3.0 4.0 0.00 0.00 0.00 93 1014.5